1500685201.19,48876,21.75,74212.0,5.15,-26.07,-26.33,0,*7E
1500685202.42,48877,21.75,74212.5,5.15,-26.17,-26.49,0,*73
1500685203.64,48878,21.75,74214.3,5.15,-26.39,-26.55,0,*7D
1500685204.89,48879,21.75,74214.5,5.15,-26.33,-26.55,0,*76
1500685206.14,48880,21.75,74212.3,5.13,-26.33,-26.49,0,*7B
1500685207.35,48881,21.75,74214.3,5.13,-26.23,-26.49,0,*7B
1500685208.58,48882,21.75,74212.5,5.15,-26.49,-26.77,0,*7F
1500685209.81,48883,21.75,74210.5,5.15,-26.49,-26.77,0,*7E
1500685211.04,48884,21.75,74214.3,5.15,-26.49,-26.77,0,*79
1500685212.26,48885,21.75,74212.3,5.13,-26.39,-26.61,0,*7E
1500685213.51,48886,21.75,74216.0,5.13,-26.49,-26.77,0,*7D
1500685214.75,48887,21.75,74212.3,5.13,-26.17,-26.49,0,*7A
1500685215.97,48888,21.75,74212.8,5.13,-26.23,-26.61,0,*78
1500685217.18,48889,21.75,74210.8,5.13,-26.23,-26.61,0,*79
1500685218.43,48890,21.75,74216.3,5.13,-26.33,-26.61,0,*70
1500685219.66,48891,21.75,74212.8,5.11,-26.39,-26.77,0,*7E
1500685220.88,48892,21.75,74214.0,5.11,-26.45,-26.81,0,*7F
1500685222.13,48893,21.75,74214.0,5.13,-26.33,-26.61,0,*73
1500685223.38,48894,21.75,74214.3,5.13,-26.49,-26.77,0,*7E
1500685224.63,48895,21.75,74212.0,5.11,-26.55,-26.81,0,*79
1500685225.85,48896,21.75,74212.5,5.13,-26.39,-26.61,0,*7C
1500685227.07,48897,21.75,74210.5,5.13,-26.49,-26.87,0,*72
1500685228.29,48898,21.75,74214.5,5.11,-26.61,-26.81,0,*73
1500685229.54,48899,21.75,74214.0,5.11,-26.55,-26.81,0,*75
1500685230.78,48900,21.75,74216.0,5.11,-26.55,-26.93,0,*77
1500685232.03,48901,21.75,74216.3,5.13,-26.39,-26.77,0,*74
1500685233.23,48902,21.75,74214.0,5.11,-26.45,-26.65,0,*7D
1500685234.42,48903,21.75,74214.5,5.11,-26.45,-26.61,0,*78
1500685235.62,48904,21.75,74212.5,5.11,-26.39,-26.61,0,*74
1500685236.88,48905,21.75,74216.0,5.09,-26.33,-26.65,0,*72
1500685238.1,48906,21.75,74214.3,5.11,-26.39,-26.55,0,*71
1500685239.29,48907,21.75,74208.0,5.11,-26.23,-26.45,0,*7A
1500685240.48,48908,21.75,74212.5,5.11,-26.07,-26.45,0,*73
1500685241.7,48909,21.75,74212.0,5.11,-26.23,-26.55,0,*75
1500685242.92,48910,21.75,74212.0,5.11,-26.29,-26.61,0,*70
1500685244.14,48911,21.75,74216.3,5.11,-26.29,-26.61,0,*71
1500685245.39,48912,21.75,74214.8,5.09,-26.29,-26.61,0,*7B
1500685246.6,48913,21.75,74216.3,5.11,-26.23,-26.55,0,*7E
1500685247.83,48914,21.75,74210.8,5.11,-26.29,-26.61,0,*74
1500685249.03,48915,21.75,74214.5,5.11,-26.07,-26.39,0,*74
1500685250.25,48916,21.75,74214.8,5.11,-26.13,-26.45,0,*79
1500685251.47,48917,21.75,74212.5,5.11,-26.29,-26.61,0,*77
1500685252.75,48918,21.75,74216.8,5.09,-26.33,-26.71,0,*7B
1500685254.0,48919,21.75,74214.3,5.09,-26.29,-26.61,0,*70
1500685255.25,48920,21.75,74212.0,5.09,-26.33,-26.65,0,*75
1500685256.47,48921,21.75,74216.3,5.11,-26.39,-26.55,0,*74
1500685257.72,48922,21.75,74214.5,5.11,-26.29,-26.55,0,*76
1500685258.96,48923,21.75,74216.0,5.11,-26.29,-26.55,0,*77
1500685260.16,48924,21.75,74212.3,5.11,-26.45,-26.65,0,*79
1500685261.36,48925,21.75,74212.3,5.11,-26.39,-26.65,0,*73
1500685262.61,48926,21.75,74218.3,5.11,-26.55,-26.81,0,*70
1500685263.85,48927,21.75,74216.3,5.09,-26.49,-26.71,0,*7A
1500685265.11,48928,21.75,74212.0,5.09,-26.33,-26.61,0,*79
1500685266.33,48929,21.75,74216.0,5.11,-26.29,-26.65,0,*7E
1500685267.55,48930,21.75,74214.8,5.09,-26.45,-26.65,0,*75
1500685268.8,48931,21.75,74214.8,5.09,-26.45,-26.71,0,*71
1500685270.04,48932,21.75,74214.3,5.11,-26.29,-26.55,0,*77
1500685271.3,48933,21.75,74214.5,5.09,-26.33,-26.65,0,*77
1500685272.58,48934,21.75,74216.8,5.09,-26.33,-26.71,0,*75
1500685273.8,48935,21.75,74218.5,5.09,-26.45,-26.65,0,*70
1500685275.05,48936,21.75,74214.3,5.09,-26.33,-26.49,0,*7C
1500685276.3,48937,21.75,74212.3,5.09,-26.17,-26.49,0,*7B
1500685277.55,48938,21.75,74214.5,5.09,-26.17,-26.45,0,*78
1500685278.8,48939,21.75,74214.3,5.09,-26.29,-26.65,0,*76
1500685280.04,48940,21.75,74210.8,5.09,-26.29,-26.65,0,*78
1500685281.3,48941,21.75,74212.8,5.09,-26.33,-26.65,0,*72
1500685282.54,48942,21.75,74214.3,5.09,-26.29,-26.49,0,*74
1500685283.77,48943,21.75,74212.3,5.07,-26.13,-26.45,0,*7E
1500685284.99,48944,21.75,74212.0,5.07,-26.29,-26.49,0,*7C
1500685286.21,48945,21.75,74212.5,5.07,-26.29,-26.49,0,*7D
1500685287.46,48946,21.75,74216.3,5.09,-26.29,-26.61,0,*7A
1500685288.71,48947,21.75,74216.0,5.09,-26.17,-26.61,0,*76
1500685289.93,48948,21.75,74212.8,5.07,-26.29,-26.61,0,*7A
1500685291.16,48949,21.75,74212.8,5.07,-26.29,-26.61,0,*7B
1500685292.4,48950,21.75,74212.8,5.09,-26.45,-26.71,0,*76
1500685293.65,48951,21.75,74214.0,5.11,-26.13,-26.55,0,*7B
1500685294.88,48952,21.75,74212.3,5.07,-26.17,-26.61,0,*7C
1500685296.12,48953,21.75,74214.5,5.09,-26.29,-26.49,0,*74
1500685297.37,48954,21.75,74216.3,5.09,-26.17,-26.49,0,*7E
1500685298.64,48955,21.75,74214.3,5.09,-26.29,-26.71,0,*79
1500685299.89,48956,21.75,74218.8,5.09,-26.17,-26.61,0,*76
1500685301.14,48957,21.75,74212.8,5.09,-26.17,-26.49,0,*7D
1500685302.42,48958,21.75,74216.8,5.09,-26.13,-26.33,0,*7B
1500685303.62,48959,21.75,74212.3,5.07,-26.03,-26.45,0,*74
1500685304.87,48960,21.75,74214.0,5.07,-26.13,-26.33,0,*7E
1500685306.13,48961,21.75,74214.5,5.09,-25.87,-26.33,0,*7F
1500685307.35,48962,21.75,74214.5,5.07,-25.87,-26.17,0,*74
1500685308.63,48963,21.75,74212.0,5.09,-25.97,-26.29,0,*77
1500685309.89,48964,21.75,74214.0,5.07,-25.97,-26.29,0,*7E
1500685311.17,48965,21.75,74214.0,5.09,-25.97,-26.29,0,*71
1500685312.4,48966,21.75,74212.0,5.09,-26.03,-26.45,0,*76
1500685313.65,48967,21.75,74216.5,5.09,-26.03,-26.33,0,*76
1500685314.9,48968,21.75,74216.0,5.09,-26.13,-26.45,0,*79
1500685316.15,48969,21.75,74218.8,5.09,-25.97,-26.45,0,*77
1500685317.37,48970,21.75,74214.0,5.07,-26.13,-26.45,0,*7E
1500685318.6,48971,21.75,74212.0,5.09,-26.03,-26.49,0,*7C
1500685319.85,48972,21.75,74212.5,5.09,-26.13,-26.61,0,*74
1500685321.1,48973,21.75,74214.8,5.09,-26.13,-26.45,0,*73
1500685322.37,48974,21.75,74214.3,5.09,-25.97,-26.33,0,*7A
1500685323.58,48975,21.75,74216.0,5.07,-26.03,-26.45,0,*7A
1500685324.83,48976,21.75,74216.0,5.09,-26.13,-26.45,0,*76
1500685326.11,48977,21.75,74212.8,5.09,-25.97,-26.33,0,*79
1500685327.34,48978,21.75,74214.8,5.09,-26.03,-26.45,0,*79
1500685328.59,48979,21.75,74212.3,5.09,-26.17,-26.61,0,*7B
1500685329.79,48980,21.75,74212.3,5.11,-26.07,-26.45,0,*73
1500685330.98,48981,21.75,74212.0,5.11,-26.07,-26.45,0,*72
1500685332.23,48982,21.75,74212.3,5.09,-26.17,-26.49,0,*75
1500685333.47,48983,21.75,74212.5,5.11,-26.13,-26.55,0,*74
1500685334.7,48984,21.75,74212.0,5.07,-26.17,-26.49,0,*7D
1500685335.95,48985,21.75,74214.5,5.09,-26.13,-26.61,0,*7C
1500685337.16,48986,21.75,74214.0,5.11,-26.23,-26.55,0,*72
1500685338.41,48987,21.75,74214.3,5.09,-26.17,-26.65,0,*7E
1500685339.64,48988,21.75,74218.0,5.07,-26.29,-26.61,0,*76
1500685340.91,48989,21.69,74214.5,5.09,-26.33,-26.71,0,*73
1500685342.16,48990,21.75,74212.0,5.09,-26.45,-26.71,0,*7A
1500685343.41,48991,21.75,74212.8,5.09,-26.33,-26.65,0,*7F
1500685344.66,48992,21.75,74216.0,5.07,-26.29,-26.71,0,*7C
1500685345.91,48993,21.75,74218.3,5.07,-26.29,-26.71,0,*7D
1500685347.18,48994,21.75,74214.8,5.09,-26.29,-26.71,0,*74
1500685348.41,48995,21.75,74216.0,5.07,-26.29,-26.65,0,*7E
1500685349.66,48996,21.75,74212.5,5.07,-26.33,-26.71,0,*73
1500685350.88,48997,21.75,74212.8,5.07,-26.45,-26.71,0,*73
1500685352.08,48998,21.75,74212.8,5.07,-26.45,-26.87,0,*75
1500685353.33,48999,21.75,74214.0,5.07,-26.29,-26.71,0,*77
1500685354.58,49000,21.75,74212.8,5.09,-26.29,-26.61,0,*70
1500685355.81,49001,21.69,74214.3,5.07,-26.17,-26.65,0,*76
1500685357.03,49002,21.69,74210.5,5.07,-26.13,-26.49,0,*7F
1500685358.27,49003,21.75,74214.8,5.09,-26.13,-26.49,0,*70
1500685359.47,49004,21.75,74214.3,5.07,-26.45,-26.65,0,*74
1500685360.7,49005,21.69,74210.8,5.07,-26.29,-26.61,0,*7B
1500685361.92,49006,21.69,74210.8,5.07,-26.29,-26.65,0,*7C
1500685363.15,49007,21.75,74214.5,5.07,-26.29,-26.65,0,*7D
1500685364.37,49008,21.75,74214.8,5.07,-26.29,-26.49,0,*7C
1500685365.6,49009,21.75,74214.8,5.07,-26.17,-26.61,0,*7A
1500685366.82,49010,21.75,74214.0,5.07,-26.17,-26.49,0,*78
1500685368.05,49011,21.69,74214.5,5.07,-26.33,-26.65,0,*71
1500685369.28,49012,21.75,74214.5,5.07,-26.45,-26.97,0,*7E
1500685370.53,49013,21.75,74214.5,5.07,-26.33,-26.71,0,*76
1500685371.78,49014,21.75,74212.3,5.07,-26.29,-26.71,0,*7A
1500685373.0,49015,21.75,74214.3,5.07,-26.29,-26.45,0,*7C
1500685374.23,49016,21.75,74212.3,5.07,-26.17,-26.65,0,*70
1500685375.46,49017,21.75,74214.3,5.07,-26.17,-26.61,0,*75
1500685376.71,49018,21.75,74212.0,5.07,-26.33,-26.71,0,*7D
1500685377.96,49019,21.69,74214.0,5.07,-26.29,-26.71,0,*77
1500685379.19,49020,21.69,74212.8,5.07,-26.33,-26.65,0,*73
1500685380.41,49021,21.75,74214.5,5.07,-26.45,-26.71,0,*76
1500685381.62,49022,21.75,74214.5,5.07,-26.49,-26.87,0,*70
1500685382.84,49023,21.75,74212.3,5.03,-26.49,-26.93,0,*70
1500685384.07,49024,21.69,74214.5,5.03,-26.55,-27.03,0,*72
1500685385.3,49025,21.69,74214.5,5.07,-26.49,-26.97,0,*76
1500685386.52,49026,21.69,74212.3,5.07,-26.29,-26.65,0,*7E
1500685387.77,49027,21.75,74212.8,5.07,-26.29,-26.71,0,*7A
1500685389.0,49028,21.69,74214.3,5.03,-26.49,-26.77,0,*71
1500685390.23,49029,21.75,74212.0,5.07,-26.33,-26.87,0,*76
1500685391.45,49030,21.75,74214.0,5.03,-26.23,-26.71,0,*72
1500685392.7,49031,21.75,74214.8,5.01,-26.39,-26.77,0,*7C
1500685393.91,49032,21.75,74214.8,5.03,-26.65,-27.03,0,*76
1500685395.14,49033,21.75,74212.3,5.03,-26.39,-26.77,0,*7C
1500685396.4,49034,21.75,74212.8,5.03,-26.33,-26.77,0,*71
1500685397.65,49035,21.69,74214.5,5.01,-26.39,-26.93,0,*72
1500685398.87,49036,21.69,74212.3,5.03,-26.55,-27.03,0,*71
1500685400.08,49037,21.69,74214.5,5.03,-26.49,-27.03,0,*7D
1500685401.32,49038,21.69,74214.8,5.03,-26.55,-27.19,0,*74
1500685402.58,49039,21.69,74212.0,5.01,-26.65,-27.19,0,*74
1500685403.83,49040,21.69,74214.5,5.03,-26.71,-27.23,0,*74
1500685405.06,49041,21.69,74212.8,5.01,-26.65,-27.03,0,*70
1500685406.31,49042,21.75,74216.8,5.03,-26.71,-27.19,0,*7F
1500685407.57,49043,21.69,74212.3,5.01,-26.71,-27.19,0,*7C
1500685408.82,49044,21.69,74214.0,5.01,-26.55,-27.07,0,*72
1500685410.05,49045,21.75,74218.3,5.01,-26.49,-27.03,0,*7A
1500685411.3,49046,21.75,74216.8,5.01,-26.55,-27.03,0,*74
1500685412.55,49047,21.69,74212.0,5.01,-26.49,-26.93,0,*70
1500685413.78,49048,21.75,74218.0,5.01,-26.65,-27.07,0,*7D
1500685415.03,49049,21.69,74212.0,5.01,-26.55,-27.03,0,*7B
1500685416.26,49050,21.69,74214.5,5.01,-26.65,-27.03,0,*70
1500685417.53,49051,21.69,74216.3,5.01,-26.55,-26.93,0,*7A
1500685418.8,49052,21.75,74218.0,5.01,-26.55,-26.93,0,*79
1500685420.03,49053,21.69,74214.5,4.99,-26.45,-26.97,0,*7D
1500685421.28,49054,21.69,74216.3,4.99,-26.55,-26.97,0,*7B
1500685422.54,49055,21.75,74218.5,4.97,-26.49,-26.81,0,*7E
1500685423.77,49056,21.69,74214.8,4.99,-26.45,-26.97,0,*78
1500685424.99,49057,21.75,74216.8,4.97,-26.61,-27.03,0,*7D
1500685426.22,49058,21.69,74216.3,4.99,-26.55,-27.07,0,*7F
1500685427.45,49059,21.69,74216.0,4.97,-26.61,-27.03,0,*73
1500685428.67,49060,21.69,74216.0,4.97,-26.49,-26.87,0,*7E
1500685429.92,49061,21.69,74216.0,4.97,-26.45,-26.81,0,*75
1500685431.15,49062,21.69,74212.5,4.99,-26.39,-26.77,0,*7A
1500685432.38,49063,21.75,74214.8,4.99,-26.45,-26.97,0,*7E
1500685433.61,49064,21.75,74214.5,4.97,-26.49,-26.87,0,*7A
1500685434.84,49065,21.69,74214.5,4.97,-26.61,-27.03,0,*7C
1500685436.09,49066,21.69,74214.5,4.97,-26.77,-27.13,0,*79
1500685437.32,49067,21.75,74214.8,4.97,-26.65,-27.13,0,*7B
1500685438.54,49068,21.69,74210.5,4.97,-26.65,-27.13,0,*74
1500685439.82,49069,21.69,74214.3,4.97,-26.77,-27.19,0,*7C
1500685441.08,49070,21.75,74216.3,4.97,-26.77,-27.29,0,*77
1500685442.31,49071,21.69,74216.0,4.95,-26.65,-27.19,0,*74
1500685443.55,49072,21.75,74218.8,4.95,-26.77,-27.13,0,*7E
1500685444.75,49073,21.69,74214.0,4.95,-26.49,-26.87,0,*7E
1500685445.98,49074,21.75,74218.5,4.95,-26.45,-26.81,0,*73
1500685447.19,49075,21.69,74212.0,4.95,-26.45,-26.87,0,*74
1500685448.39,49076,21.69,74210.5,4.95,-26.45,-26.87,0,*77
1500685449.64,49077,21.69,74212.8,4.95,-26.29,-26.77,0,*73
1500685450.87,49078,21.69,74212.3,4.95,-26.45,-26.81,0,*7F
1500685452.11,49079,21.69,74214.3,4.95,-26.45,-26.81,0,*7E
1500685453.34,49080,21.69,74212.8,4.95,-26.45,-26.81,0,*78
1500685454.57,49081,21.75,74218.5,4.93,-26.49,-26.87,0,*75
1500685455.82,49082,21.69,74212.8,4.93,-26.49,-26.93,0,*73
1500685457.08,49083,21.69,74216.0,4.95,-26.55,-26.81,0,*7A
1500685458.28,49084,21.75,74218.3,4.95,-26.49,-26.87,0,*76
1500685459.54,49085,21.69,74214.5,4.95,-26.33,-26.81,0,*7C
1500685460.78,49086,21.69,74212.0,4.93,-26.39,-26.87,0,*75
1500685462.01,49087,21.75,74216.3,4.93,-26.49,-26.87,0,*73
1500685463.27,49088,21.69,74214.5,4.95,-26.33,-26.81,0,*71
1500685464.47,49089,21.69,74214.3,4.95,-26.45,-26.87,0,*77
1500685465.73,49090,21.69,74212.3,4.95,-26.33,-26.77,0,*71
1500685466.97,49091,21.69,74212.3,4.95,-26.33,-26.65,0,*73
1500685468.2,49092,21.69,74214.5,4.95,-26.29,-26.65,0,*7B
1500685469.45,49093,21.69,74214.3,4.97,-26.29,-26.65,0,*78
1500685470.71,49094,21.69,74214.0,4.95,-26.33,-26.77,0,*75
1500685471.94,49095,21.69,74216.5,4.93,-26.49,-26.87,0,*70
1500685473.17,49096,21.69,74214.8,4.95,-26.45,-26.81,0,*7F
1500685474.38,49097,21.75,74220.5,4.95,-26.45,-26.87,0,*78
1500685475.58,49098,21.69,74212.8,4.95,-26.45,-26.87,0,*77
1500685476.79,49099,21.69,74212.0,4.95,-26.61,-27.03,0,*7D
1500685477.99,49100,21.69,74212.5,4.95,-26.49,-26.87,0,*7B
1500685479.24,49101,21.69,74214.3,4.93,-26.55,-26.87,0,*71
1500685480.5,49102,21.69,74214.8,4.93,-26.39,-26.81,0,*7E
1500685481.73,49103,21.69,74212.8,4.95,-26.45,-26.81,0,*72
1500685482.96,49104,21.69,74216.8,4.95,-26.45,-26.81,0,*75
1500685484.21,49105,21.75,74216.8,4.93,-26.55,-26.87,0,*75
1500685485.49,49106,21.69,74216.0,4.93,-26.55,-26.93,0,*73
1500685486.74,49107,21.69,74212.5,4.93,-26.55,-26.87,0,*77
1500685488.0,49108,21.69,74216.3,4.93,-26.65,-26.93,0,*7E
1500685489.24,49109,21.69,74212.5,4.93,-26.65,-27.07,0,*73
1500685490.47,49110,21.75,74218.5,4.93,-26.65,-27.07,0,*7B
1500685491.71,49111,21.69,74214.3,4.93,-26.65,-27.07,0,*7A
1500685492.96,49112,21.69,74216.0,4.93,-26.55,-26.87,0,*73
1500685494.19,49113,21.69,74216.3,4.93,-26.49,-26.87,0,*7F
1500685495.45,49114,21.69,74216.0,4.93,-26.49,-26.93,0,*7D
1500685496.71,49115,21.75,74216.3,4.93,-26.49,-26.93,0,*7C
1500685497.94,49116,21.69,74216.8,4.93,-26.49,-26.87,0,*7A
1500685499.19,49117,21.69,74214.8,4.91,-26.49,-26.93,0,*7C
1500685500.44,49118,21.69,74212.0,4.91,-26.49,-26.81,0,*70
1500685501.66,49119,21.69,74214.3,4.91,-26.49,-26.87,0,*77
1500685502.89,49120,21.69,74216.0,4.91,-26.49,-26.87,0,*7D
1500685504.17,49121,21.69,74214.3,4.91,-26.33,-26.81,0,*77
1500685505.41,49122,21.69,74216.0,4.89,-26.55,-26.93,0,*7E
1500685506.63,49123,21.69,74212.8,4.91,-26.39,-26.87,0,*79
1500685507.87,49124,21.69,74214.0,4.89,-26.55,-26.93,0,*78
1500685509.09,49125,21.69,74218.0,4.89,-26.45,-26.93,0,*78
1500685510.34,49126,21.69,74214.0,4.91,-26.39,-26.81,0,*7A
1500685511.58,49127,21.69,74212.8,4.91,-26.23,-26.71,0,*7F
1500685512.86,49128,21.69,74212.8,4.91,-26.33,-26.81,0,*7E
1500685514.08,49129,21.69,74212.5,4.91,-26.39,-26.87,0,*73
1500685515.32,49130,21.69,74210.0,4.91,-26.23,-26.71,0,*79
1500685516.56,49131,21.69,74214.5,4.89,-26.55,-26.93,0,*7C
1500685517.81,49132,21.69,74214.8,4.91,-26.49,-26.81,0,*78
1500685519.09,49133,21.69,74214.5,4.91,-26.17,-26.71,0,*7D
1500685520.33,49134,21.69,74212.0,4.91,-26.23,-26.71,0,*7D
1500685521.6,49135,21.69,74210.5,4.91,-26.33,-26.71,0,*7D
1500685522.84,49136,21.69,74208.0,4.91,-26.23,-26.71,0,*7F
1500685524.08,49137,21.69,74212.5,4.91,-26.23,-26.71,0,*7E
1500685525.33,49138,21.69,74212.3,4.89,-26.33,-26.77,0,*7F
1500685526.55,49139,21.69,74208.5,4.91,-26.23,-26.65,0,*75
1500685527.8,49140,21.69,74212.8,4.91,-26.39,-26.93,0,*79
1500685529.05,49141,21.69,74212.0,4.91,-26.33,-26.65,0,*7B
1500685530.29,49142,21.69,74212.0,4.91,-26.23,-26.55,0,*7A
1500685531.54,49143,21.69,74214.0,4.91,-26.17,-26.65,0,*7F
1500685532.79,49144,21.69,74214.8,4.91,-26.33,-26.65,0,*7E
1500685534.03,49145,21.69,74214.3,4.91,-26.23,-26.77,0,*7D
1500685535.31,49146,21.69,74214.5,4.91,-26.33,-26.55,0,*7F
1500685536.56,49147,21.69,74212.8,4.89,-26.33,-26.77,0,*77
1500685537.84,49148,21.69,74212.0,4.91,-26.33,-26.81,0,*78
1500685539.06,49149,21.69,74212.0,4.91,-26.23,-26.65,0,*72
1500685540.33,49150,21.69,74212.8,4.91,-26.33,-26.71,0,*7E
1500685541.55,49151,21.69,74212.5,4.91,-26.23,-26.65,0,*7B
1500685542.77,49152,21.69,74214.5,4.91,-26.23,-26.65,0,*78
1500685544.02,49153,21.69,74212.3,4.89,-26.29,-26.77,0,*79
1500685545.26,49154,21.69,74212.3,4.91,-26.17,-26.49,0,*77
1500685546.54,49155,21.69,74214.0,4.91,-26.33,-26.55,0,*7D
1500685547.75,49156,21.69,74212.3,4.91,-26.23,-26.65,0,*7C
1500685548.97,49157,21.69,74214.5,4.91,-26.23,-26.65,0,*7D
1500685550.19,49158,21.69,74212.3,4.91,-26.23,-26.65,0,*72
1500685551.4,49159,21.69,74212.8,4.91,-26.23,-26.65,0,*73
1500685552.63,49160,21.69,74214.3,4.93,-26.23,-26.65,0,*7B
1500685553.89,49161,21.69,74214.8,4.93,-26.33,-26.65,0,*7B
1500685555.16,49162,21.69,74212.3,4.91,-26.33,-26.71,0,*7F
1500685556.38,49163,21.69,74214.0,4.91,-26.23,-26.65,0,*7A
1500685557.65,49164,21.69,74210.3,4.91,-26.17,-26.55,0,*79
1500685558.9,49165,21.69,74210.3,4.91,-26.07,-26.55,0,*79
1500685560.13,49166,21.69,74212.5,4.91,-26.07,-26.39,0,*70
1500685561.4,49167,21.69,74214.8,4.91,-26.17,-26.55,0,*7A
1500685562.67,49168,21.69,74210.5,4.91,-26.17,-26.55,0,*75
1500685563.91,49169,21.69,74208.5,4.91,-26.23,-26.55,0,*73
1500685565.15,49170,21.69,74212.5,4.91,-26.07,-26.55,0,*7D
1500685566.4,49171,21.69,74214.8,4.91,-26.17,-26.65,0,*7E
1500685567.65,49172,21.69,74214.5,4.91,-26.17,-26.65,0,*7D
1500685568.88,49173,21.69,74212.8,4.91,-26.07,-26.39,0,*74
1500685570.15,49174,21.69,74212.3,4.91,-26.17,-26.55,0,*78
1500685571.43,49175,21.69,74214.5,4.91,-26.33,-26.55,0,*7F
1500685572.62,49176,21.69,74214.0,4.89,-26.23,-26.61,0,*73
1500685573.86,49177,21.69,74210.8,4.91,-26.23,-26.55,0,*7C
1500685575.09,49178,21.69,74214.5,4.91,-26.03,-26.39,0,*7B
1500685576.31,49179,21.69,74212.0,4.89,-26.13,-26.45,0,*79
1500685577.56,49180,21.69,74210.5,4.93,-26.17,-26.49,0,*7C
1500685578.84,49181,21.69,74214.5,4.93,-26.17,-26.55,0,*70
1500685580.1,49182,21.69,74212.3,4.93,-26.39,-26.71,0,*79
1500685581.35,49183,21.69,74210.3,4.93,-26.39,-26.81,0,*77
1500685582.64,49184,21.69,74212.0,4.93,-26.33,-26.71,0,*75
1500685583.89,49185,21.69,74208.3,4.93,-26.17,-26.65,0,*77
1500685585.15,49186,21.69,74208.5,4.93,-26.39,-26.81,0,*72
1500685586.4,49187,21.69,74212.5,4.93,-26.23,-26.55,0,*71
1500685587.65,49188,21.69,74210.3,4.93,-26.13,-26.49,0,*70
1500685588.9,49189,21.69,74208.5,4.93,-26.23,-26.71,0,*79
1500685590.09,49190,21.69,74212.0,4.89,-26.23,-26.61,0,*7B
1500685591.31,49191,21.69,74212.3,4.95,-26.13,-26.49,0,*7E
1500685592.56,49192,21.69,74212.0,4.93,-26.23,-26.71,0,*73
1500685593.81,49193,21.69,74212.3,4.91,-26.49,-26.71,0,*7C
1500685595.06,49194,21.69,74210.5,4.91,-26.49,-26.81,0,*74
1500685596.33,49195,21.69,74212.8,4.91,-26.17,-26.55,0,*77
1500685597.58,49196,21.69,74210.5,4.91,-26.17,-26.39,0,*7E
1500685598.83,49197,21.69,74212.3,4.91,-26.17,-26.49,0,*78
1500685600.08,49198,21.69,74214.0,4.93,-26.07,-26.55,0,*79
1500685601.34,49199,21.69,74210.3,4.93,-26.17,-26.49,0,*74
1500685602.6,49200,21.69,74214.0,4.93,-26.03,-26.33,0,*7F
1500685603.83,49201,21.69,74210.8,4.93,-26.07,-26.49,0,*77
1500685605.09,49202,21.69,74208.8,4.93,-26.17,-26.65,0,*7B
1500685606.34,49203,21.69,74214.5,4.93,-26.07,-26.55,0,*78
1500685607.58,49204,21.69,74208.3,4.93,-26.03,-26.39,0,*71
1500685608.81,49205,21.69,74208.8,4.95,-25.97,-26.45,0,*73
1500685610.07,49206,21.69,74214.8,4.93,-26.17,-26.49,0,*71
1500685611.29,49207,21.69,74212.0,4.93,-26.23,-26.65,0,*79
1500685612.5,49208,21.69,74210.5,4.95,-26.03,-26.45,0,*70
1500685613.73,49209,21.69,74210.0,4.93,-26.07,-26.49,0,*7F
1500685614.98,49210,21.69,74210.0,4.93,-26.17,-26.49,0,*76
1500685616.24,49211,21.69,74212.0,4.93,-26.17,-26.49,0,*77
1500685617.49,49212,21.69,74210.5,4.93,-26.17,-26.49,0,*74
1500685618.72,49213,21.69,74210.5,4.95,-26.13,-26.49,0,*77
1500685619.94,49214,21.69,74208.0,4.93,-26.07,-26.49,0,*73
1500685621.15,49215,21.69,74208.8,4.95,-26.07,-26.39,0,*73
1500685622.41,49216,21.69,74208.3,4.95,-25.97,-26.33,0,*70
1500685623.65,49217,21.69,74208.8,4.95,-25.87,-26.33,0,*70
1500685624.89,49218,21.69,74210.3,4.95,-26.03,-26.33,0,*70
1500685626.14,49219,21.69,74210.3,4.93,-26.07,-26.33,0,*73
1500685627.38,49220,21.69,74210.3,4.95,-25.97,-26.45,0,*74
1500685628.59,49221,21.69,74212.3,4.95,-26.03,-26.45,0,*7B
1500685629.84,49222,21.69,74210.3,4.95,-26.13,-26.33,0,*78
1500685631.08,49223,21.69,74210.0,4.95,-26.03,-26.33,0,*78
1500685632.31,49224,21.69,74208.8,4.97,-26.03,-26.45,0,*7C
1500685633.57,49225,21.69,74212.3,4.97,-26.03,-26.33,0,*7C
1500685634.8,49226,21.69,74210.3,4.97,-26.03,-26.45,0,*7E
1500685636.08,49227,21.69,74210.0,4.97,-25.97,-26.33,0,*70
1500685637.31,49228,21.69,74210.8,4.97,-26.03,-26.45,0,*70
1500685638.56,49229,21.69,74208.0,4.97,-26.29,-26.49,0,*75
1500685639.84,49230,21.69,74210.5,4.97,-26.13,-26.33,0,*79
1500685641.06,49231,21.69,74210.8,4.97,-26.03,-26.45,0,*78
1500685642.3,49232,21.69,74210.5,4.97,-26.03,-26.45,0,*7B
1500685643.54,49233,21.69,74210.5,4.97,-26.13,-26.45,0,*7B
1500685644.79,49234,21.69,74210.0,4.97,-26.13,-26.45,0,*7C
1500685646.04,49235,21.69,74214.5,4.97,-26.13,-26.45,0,*7D
1500685647.29,49236,21.69,74210.5,4.97,-26.13,-26.45,0,*7E
1500685648.54,49237,21.69,74208.0,4.97,-26.17,-26.45,0,*7B
1500685649.78,49238,21.69,74210.5,4.97,-26.17,-26.49,0,*78
1500685651.03,49239,21.69,74208.0,4.97,-26.13,-26.49,0,*7D
1500685652.29,49240,21.69,74210.3,4.99,-25.97,-26.29,0,*74
1500685653.54,49241,21.69,74210.3,4.97,-26.17,-26.45,0,*7A
1500685654.77,49242,21.69,74212.3,4.99,-26.13,-26.39,0,*78
1500685656.02,49243,21.69,74210.0,4.97,-26.17,-26.45,0,*78
1500685657.27,49244,21.69,74208.8,4.97,-26.17,-26.49,0,*73
1500685658.52,49245,21.69,74210.5,4.97,-26.17,-26.49,0,*72
1500685659.75,49246,21.69,74212.0,4.99,-26.13,-26.45,0,*77
1500685660.99,49247,21.69,74208.8,4.97,-26.13,-26.49,0,*74
1500685662.24,49248,21.69,74210.8,4.97,-26.29,-26.49,0,*72
1500685663.48,49249,21.69,74210.0,4.97,-26.29,-26.61,0,*79
1500685664.71,49250,21.69,74214.0,4.99,-26.13,-26.45,0,*70
1500685665.94,49251,21.69,74212.0,4.99,-26.17,-26.45,0,*75
1500685667.19,49252,21.69,74212.5,4.97,-26.29,-26.61,0,*73
1500685668.44,49253,21.69,74210.0,4.97,-26.29,-26.61,0,*72
1500685669.69,49254,21.69,74208.3,4.97,-26.17,-26.61,0,*78
1500685670.92,49255,21.69,74214.5,4.99,-26.13,-26.45,0,*75
1500685672.17,49256,21.69,74208.0,4.97,-26.17,-26.61,0,*7A
1500685673.4,49257,21.69,74210.3,4.99,-26.13,-26.45,0,*77
1500685674.64,49258,21.69,74212.5,4.97,-26.29,-26.45,0,*7F
1500685675.89,49259,21.69,74210.0,4.97,-26.29,-26.61,0,*78
1500685677.09,49260,21.69,74208.5,4.99,-26.23,-26.61,0,*76
1500685678.31,49261,21.69,74208.8,4.97,-26.45,-26.61,0,*79
1500685679.53,49262,21.69,74208.5,4.99,-26.23,-26.55,0,*73
1500685680.78,49263,21.69,74210.5,4.97,-26.17,-26.49,0,*76
1500685682.03,49264,21.69,74208.5,4.97,-26.29,-26.61,0,*76
1500685683.26,49265,21.69,74208.5,4.99,-26.29,-26.61,0,*79
1500685684.51,49266,21.69,74208.5,4.99,-26.29,-26.55,0,*7D
1500685685.76,49267,21.69,74208.0,4.97,-26.29,-26.65,0,*71
1500685686.95,49268,21.69,74210.5,4.99,-26.23,-26.61,0,*7E
1500685688.15,49269,21.69,74208.0,4.99,-26.23,-26.45,0,*79
1500685689.4,49270,21.69,74206.3,4.97,-26.29,-26.61,0,*73
1500685690.62,49271,21.69,74208.5,4.99,-26.13,-26.45,0,*73
1500685691.85,49272,21.69,74210.3,4.99,-26.23,-26.55,0,*72
1500685693.1,49273,21.69,74208.3,4.97,-26.17,-26.61,0,*7D
1500685694.32,49274,21.69,74206.8,4.99,-26.29,-26.61,0,*79
1500685695.55,49275,21.69,74210.8,4.99,-26.29,-26.61,0,*78
1500685696.8,49276,21.69,74208.5,4.97,-26.45,-26.77,0,*78
1500685698.05,49277,21.69,74210.8,4.97,-26.45,-26.77,0,*79
1500685699.26,49278,21.69,74208.0,4.99,-26.39,-26.61,0,*74
1500685700.51,49279,21.69,74208.8,4.97,-26.33,-26.65,0,*75
1500685701.73,49280,21.69,74210.3,4.99,-26.23,-26.55,0,*7F
1500685702.95,49281,21.69,74210.3,4.97,-26.45,-26.65,0,*73
1500685704.16,49282,21.69,74208.3,4.99,-26.39,-26.61,0,*71